Search your local weather  

 

Hazardous Weather Conditions

No active alerts for SAN ANTONIO, TEXAS

Current Conditions: SAN ANTONIO, TEXAS

Partly Cloudy


86.0 F

Last Updated on Jul 17 2024, 12:55 PM CDT
Humidity: %
Wind Speed: 0.0 mph
Barometer: 30.07 in
Dewpoint: F
Visibility: 10.00 mi
Precip: --
Heat Index: NA
Wind Chill: NA
Current conditions at:

S ANTONIO-BOERNE (K5C1)

Lat: 29.73 Lon: -98.7

active severe weather and emergency alerts image weather storm and storm spotter reports image weather observation monitoring service image
Active
Alerts
Storm Reports Weather
Monitoring

5 Day Forecast for SAN ANTONIO, TEXAS (78201)

Wednesday

Mostly Cloudy

High 98 °F
Wednesday
Night
Mostly Cloudy

Low 77 °F
Thursday

Chance of T-storms

High 96 °F
Thursday
Night
Isolated T-storm

Low 76 °F
Friday

Chance of T-storms

High 93 °F
Friday
Night
Partly Cloudy

Low 76 °F
Saturday

Isolated T-storm

High 94 °F
Saturday
Night
Partly Cloudy

Low 75 °F
Sunday

Chance of Scattered T-storms
High 94 °F

Sign-up For Email & Text Message Weather Alert Notification Services



Advertise Here

Observation History for SAN ANTONIO, TEXAS


Time Wind
(mph)
Vis
(mi)
Weather Precip (in) Temperature (F) Relative
Humidity
Wind
Chill
(F)
Heat
Index
(F)
Pressure
Air Dwpt altimeter
(in)
sea level
(mb)
12:55 PM CDT 0.0 10.00 Partly Cloudy -- 86.0 % NA NA 30.07 1018.3
12:35 PM CDT 0.0 10.00 Clear -- 86.0 % NA NA 30.07 1018.3
11:55 AM CDT SE 5.8 10.00 NULL -- 84.2 % NA NA 30.07 1018.3
11:15 AM CDT SE 6.9 10.00 Clear -- 84.2 68.0 58% NA 87.4 30.07 1018.3
10:55 AM CDT 5.8 10.00 Clear -- 82.4 68.0 62% NA 85.5 30.07 1018.3
10:35 AM CDT 10.3 10.00 Clear -- 82.4 68.0 62% NA 85.5 30.06 1018.0
10:15 AM CDT 6.9 10.00 Clear -- 80.6 68.0 66% NA 83.3 30.07 1018.3
09:55 AM CDT S 8.1 10.00 Clear -- 80.6 68.0 66% NA 83.3 30.06 1018.0
09:35 AM CDT SW 6.9 10.00 Partly Cloudy -- 80.6 69.8 70% NA 83.8 30.07 1018.3
09:15 AM CDT S 8.1 10.00 Partly Cloudy -- 78.8 69.8 74% NA 79.9 30.06 1018.0
08:55 AM CDT SW 9.2 10.00 Partly Cloudy -- 78.8 69.8 74% NA 79.9 30.06 1018.0
08:15 AM CDT 6.9 10.00 Partly Cloudy -- 77.0 77.0 100% NA 79.2 30.06 1018.0
07:35 AM CDT 6.9 10.00 Clear -- 73.4 73.4 100% NA 75.2 30.05 1017.6
07:15 AM CDT S 4.7 10.00 Clear -- 73.4 73.4 100% NA 75.2 30.04 1017.3
06:55 AM CDT 5.8 10.00 Clear -- 73.4 73.4 100% NA 75.2 30.04 1017.3
06:35 AM CDT S 5.8 10.00 Clear -- 73.4 73.4 100% NA 75.2 30.04 1017.3
06:15 AM CDT S 6.9 10.00 Partly Cloudy -- 73.4 73.4 100% NA 75.2 30.04 1017.3
05:55 AM CDT S 5.7 10.00 Cloudy -- 73.4 73.4 100% NA 75.2 30.03 1016.9
05:35 AM CDT S 6.9 10.00 Mostly Cloudy -- 73.4 73.4 100% NA 75.2 30.03 1016.9
04:55 AM CDT S 9.2 10.00 Cloudy -- 75.2 75.2 100% NA 77.2 30.02 1016.6
04:35 AM CDT S 6.9 10.00 Mostly Cloudy -- 75.2 75.2 100% NA 77.2 30.03 1016.9
04:15 AM CDT S 8.1 10.00 Mostly Cloudy -- 75.2 75.2 100% NA 77.2 30.03 1016.9
03:35 AM CDT S 5.8 10.00 Cloudy -- 75.2 75.2 100% NA 77.2 30.03 1016.9
03:15 AM CDT S 5.8 10.00 Cloudy -- 75.2 75.2 100% NA 77.2 30.02 1016.6

Regional Weather Observation

S ANTONIO-BOERNE (K5C1)

Partly Cloudy
86.0 F

SAN ANTONIO (KSAT)

NULL
91.0 F

CASTROVILLE MUNI (KCVB)

Partly Cloudy
91.6 F

KELLY AFB (KSKF)

Mostly Cloudy
86.2 F

S ANTONIO/STINSN (KSSF)

Partly Cloudy
91.0 F

RANDOLPH AFB (KRND)

Clear
85.6 F

Advertise Here


Advertise Here